Weather History for Silver Bay, MN

Change the Weather History Date:

Sunday, January 27, 2013

  Actual Average Record
Temperature  
Mean Temperature 13 °F -  
Max Temperature 28 °F 20 °F 53 °F (2006)
Min Temperature -2 °F 2 °F -22 °F (2014)
Degree Days  
Heating Degree Days 52    
Moisture  
Dew Point 9 °F    
Average Humidity 72    
Maximum Humidity 93    
Minimum Humidity 51    
Precipitation  
Precipitation 0.00 in - - ()
Sea Level Pressure  
Sea Level Pressure 29.98 in    
Wind  
Wind Speed 2 mph (East)    
Max Wind Speed 8 mph    
Max Gust Speed -    
Visibility 9 miles    
Events Snow    
Averages and records for this station are not official NWS values.
T = Trace of Precipitation, MM = Missing Value Source: NWS Daily Summary

Daily Weather History Graph

Daily Weather History Graph

Search for Another Location

Airport:

Trip Planner

Search our weather history database for the weather conditions in past years. The results will help you decide how hot, cold, wet, or windy it might be!

Date:

Astronomy

Jan. 27, 2013 Rise Set
Actual Time 7:36 AM CST 5:00 PM CST
Civil Twilight 7:03 AM CST 5:33 PM CST
Nautical Twilight 6:26 AM CST 6:10 PM CST
Astronomical Twilight 5:50 AM CST 6:46 PM CST
Moon 6:02 PM CST 7:24 AM CST
Length of Visible Light 10h 30m
Length of Day
9h 23m
Full, 100% of the Moon is Illuminated
Jan 27
Full
Feb 3
Last Quarter
Feb 10
New
Feb 17
First Quarter
Feb 25
Full

Hourly Weather History & Observations

Time (CST) Temp. Windchill Dew Point Humidity Pressure Visibility Wind Dir Wind Speed Gust Speed Precip Events Conditions
12:13 AM 6.8 °F - -0.4 °F 72% 30.12 in 10.0 mi Calm Calm - N/A   Clear
12:53 AM 6.8 °F - 1.4 °F 79% 30.11 in 10.0 mi Calm Calm - N/A   Overcast
1:13 AM 6.8 °F - -0.4 °F 72% 30.11 in 10.0 mi Calm Calm - N/A   Scattered Clouds
1:33 AM 5.0 °F - -0.4 °F 78% 30.11 in 10.0 mi Calm Calm - N/A   Clear
1:53 AM 3.2 °F - -2.2 °F 78% 30.11 in 10.0 mi Calm Calm - N/A   Clear
2:13 AM 3.2 °F - -2.2 °F 78% 30.12 in 10.0 mi Calm Calm - N/A   Clear
2:33 AM 1.4 °F - -4.0 °F 78% 30.11 in 10.0 mi Calm Calm - N/A   Clear
2:53 AM 1.4 °F - -4.0 °F 78% 30.10 in 10.0 mi Calm Calm - N/A   Clear
3:13 AM 1.4 °F - -4.0 °F 78% 30.09 in 10.0 mi Calm Calm - N/A   Clear
3:33 AM -0.4 °F - -5.8 °F 78% 30.08 in 10.0 mi Calm Calm - N/A   Clear
3:53 AM -0.4 °F - -5.8 °F 78% 30.07 in 10.0 mi Calm Calm - N/A   Clear
4:13 AM -0.4 °F - -5.8 °F 78% 30.07 in 10.0 mi Calm Calm - N/A   Clear
4:33 AM -0.4 °F - -7.6 °F 72% 30.06 in 10.0 mi Calm Calm - N/A   Clear
4:53 AM -2.2 °F - -7.6 °F 78% 30.05 in 10.0 mi Calm Calm - N/A   Clear
5:13 AM -2.2 °F - -7.6 °F 78% 30.06 in 10.0 mi Calm Calm - N/A   Clear
5:53 AM -2.2 °F - -9.4 °F 71% 30.06 in 10.0 mi Calm Calm - N/A   Clear
6:13 AM -2.2 °F - -9.4 °F 71% 30.06 in 10.0 mi Calm Calm - N/A   Clear
6:33 AM -2.2 °F - -7.6 °F 78% 30.06 in 10.0 mi Calm Calm - N/A   Clear
6:53 AM -2.2 °F - -7.6 °F 78% 30.05 in 10.0 mi Calm Calm - N/A   Clear
7:13 AM -2.2 °F - -9.4 °F 71% 30.05 in 10.0 mi Calm Calm - N/A   Clear
7:33 AM -2.2 °F - -7.6 °F 78% 30.05 in 10.0 mi Calm Calm - N/A   Clear
7:53 AM -2.2 °F - -7.6 °F 78% 30.06 in 10.0 mi Calm Calm - N/A   Clear
8:13 AM -2.2 °F - -7.6 °F 78% 30.06 in 10.0 mi Calm Calm - N/A   Clear
8:33 AM 1.4 °F - -4.0 °F 78% 30.05 in 10.0 mi Calm Calm - N/A   Clear
8:53 AM 3.2 °F - -2.2 °F 78% 30.05 in 10.0 mi Calm Calm - N/A   Clear
9:13 AM 6.8 °F - -0.4 °F 72% 30.05 in 10.0 mi Calm Calm - N/A   Clear
9:33 AM 8.6 °F - 3.2 °F 79% 30.05 in 10.0 mi Calm Calm - N/A   Clear
9:53 AM 12.2 °F - 6.8 °F 79% 30.05 in 10.0 mi Calm Calm - N/A   Scattered Clouds
10:13 AM 17.6 °F - 8.6 °F 68% 30.04 in 10.0 mi Calm Calm - N/A   Mostly Cloudy
10:33 AM 19.4 °F - 12.2 °F 74% 30.03 in 10.0 mi Calm Calm - N/A   Mostly Cloudy
10:53 AM 24.8 °F - 14.0 °F 64% 30.03 in 10.0 mi Calm Calm - N/A   Mostly Cloudy
11:13 AM 28.4 °F 22.2 °F 12.2 °F 51% 30.02 in 10.0 mi East 5.8 mph - N/A   Scattered Clouds
11:33 AM 28.4 °F 21.2 °F 12.2 °F 51% 30.01 in 10.0 mi East 6.9 mph - N/A   Clear
11:53 AM 28.4 °F 23.3 °F 12.2 °F 51% 30.01 in 10.0 mi ESE 4.6 mph - N/A   Clear
12:13 PM 28.4 °F 23.3 °F 12.2 °F 51% 30.00 in 10.0 mi ESE 4.6 mph - N/A   Clear
12:33 PM 28.4 °F 21.2 °F 12.2 °F 51% 29.99 in 10.0 mi ESE 6.9 mph - N/A   Clear
12:54 PM 28.4 °F 23.3 °F 12.2 °F 51% 29.99 in 10.0 mi East 4.6 mph - N/A   Clear
1:13 PM 28.4 °F 23.3 °F 12.2 °F 51% 29.98 in 10.0 mi East 4.6 mph - N/A   Clear
1:33 PM 28.4 °F 22.2 °F 12.2 °F 51% 29.96 in 10.0 mi East 5.8 mph - N/A   Clear
1:53 PM 28.4 °F 24.6 °F 12.2 °F 51% 29.96 in 10.0 mi ESE 3.5 mph - N/A   Clear
2:13 PM 28.4 °F 22.2 °F 14.0 °F 55% 29.96 in 10.0 mi ESE 5.8 mph - N/A   Scattered Clouds
2:33 PM 26.6 °F 22.6 °F 12.2 °F 55% 29.96 in 10.0 mi East 3.5 mph - N/A   Mostly Cloudy
2:53 PM 26.6 °F 21.2 °F 14.0 °F 59% 29.96 in 10.0 mi East 4.6 mph - N/A   Overcast
3:13 PM 26.6 °F 22.6 °F 14.0 °F 59% 29.95 in 10.0 mi East 3.5 mph - N/A   Overcast
3:33 PM 26.6 °F 20.0 °F 14.0 °F 59% 29.95 in 10.0 mi East 5.8 mph - N/A   Overcast
3:53 PM 26.6 °F 19.1 °F 14.0 °F 59% 29.94 in 10.0 mi ENE 6.9 mph - N/A   Scattered Clouds
4:13 PM 26.6 °F 21.2 °F 14.0 °F 59% 29.94 in 10.0 mi East 4.6 mph - N/A   Clear
4:33 PM 26.6 °F 21.2 °F 15.8 °F 64% 29.93 in 10.0 mi ENE 4.6 mph - N/A   Scattered Clouds
4:53 PM 26.6 °F 21.2 °F 15.8 °F 64% 29.92 in 10.0 mi ENE 4.6 mph - N/A   Mostly Cloudy
5:13 PM 26.6 °F 20.0 °F 15.8 °F 64% 29.92 in 10.0 mi ENE 5.8 mph - N/A   Scattered Clouds
5:33 PM 26.6 °F 21.2 °F 15.8 °F 64% 29.92 in 10.0 mi ENE 4.6 mph - N/A   Scattered Clouds
5:53 PM 26.6 °F 20.0 °F 17.6 °F 69% 29.91 in 10.0 mi ENE 5.8 mph - N/A   Scattered Clouds
6:13 PM 26.6 °F 20.0 °F 17.6 °F 69% 29.91 in 10.0 mi East 5.8 mph - N/A   Scattered Clouds
6:34 PM 26.6 °F 20.0 °F 17.6 °F 69% 29.91 in 10.0 mi East 5.8 mph - N/A   Mostly Cloudy
6:53 PM 26.6 °F 19.1 °F 19.4 °F 74% 29.90 in 7.0 mi East 6.9 mph - N/A   Scattered Clouds
7:13 PM 26.6 °F 19.1 °F 21.2 °F 80% 29.89 in 10.0 mi ENE 6.9 mph - N/A   Mostly Cloudy
7:33 PM 26.6 °F 20.0 °F 21.2 °F 80% 29.89 in 10.0 mi ENE 5.8 mph - N/A   Mostly Cloudy
7:53 PM 28.4 °F 20.4 °F 21.2 °F 74% 29.88 in 10.0 mi ENE 8.1 mph - N/A   Mostly Cloudy
8:13 PM 28.4 °F 23.3 °F 24.8 °F 86% 29.87 in 7.0 mi ENE 4.6 mph - N/A   Mostly Cloudy
8:33 PM 28.4 °F 23.3 °F 24.8 °F 86% 29.87 in 4.0 mi ENE 4.6 mph - N/A   Mostly Cloudy
8:53 PM 28.4 °F 22.2 °F 24.8 °F 86% 29.87 in 2.5 mi ENE 5.8 mph - N/A   Mostly Cloudy
9:13 PM 28.4 °F 21.2 °F 24.8 °F 86% 29.86 in 3.0 mi East 6.9 mph - N/A Snow Light Snow
9:33 PM 28.4 °F 21.2 °F 26.6 °F 93% 29.85 in 3.0 mi East 6.9 mph - N/A   Mostly Cloudy
9:53 PM 28.4 °F 20.4 °F 26.6 °F 93% 29.84 in 2.5 mi East 8.1 mph - N/A Snow Light Snow
10:13 PM 28.4 °F 22.2 °F 26.6 °F 93% 29.84 in 4.0 mi East 5.8 mph - N/A   Overcast
10:33 PM 28.4 °F 24.6 °F 26.6 °F 93% 29.83 in 3.0 mi SE 3.5 mph - N/A   Overcast
10:53 PM 28.4 °F 23.3 °F 26.6 °F 93% 29.83 in 4.0 mi SE 4.6 mph - N/A   Overcast
11:13 PM 28.4 °F 23.3 °F 26.6 °F 93% 29.83 in 5.0 mi SE 4.6 mph - N/A Snow Light Snow
11:33 PM 28.4 °F 23.3 °F 26.6 °F 93% 29.83 in 2.5 mi ESE 4.6 mph - N/A Snow Light Snow
11:53 PM 28.4 °F 24.6 °F 26.6 °F 93% 29.83 in 2.5 mi SE 3.5 mph - N/A Snow Light Snow